METEOR-M2 2

Last updated on Mon Nov 03 2025 00:02:25 GMT+0000 (Coordinated Universal Time)

1 44387U 19038A 25306.48329532 .00000203 00000+0 10789-3 0 9991 2 44387 98.8929 285.7276 0000921 8.1916 351.9277 14.24264852329025
UTC large
Height (km)
Speed (km/s)
/
Latitude / Longitude
Inclination (degrees)
Orbital Period (minutes)
Azimuth
Elevation
Range (km)
Doppler Factor

Next 0 passes for location: London (51.5072 / 0.1276)

Sorry there are no passes over London.